1998-067RE

Last updated on Thu May 28 2020 00:02:09 GMT+0000 (Coordinated Universal Time)

1 45261U 98067RE 20148.28117999 .00005971 00000-0 10673-3 0 9991 2 45261 51.6417 90.7961 0007059 285.1500 74.8709 15.51512881 15219
UTC large
Height (km)
Speed (km/s)
/
Latitude / Longitude
Inclination (degrees)
Orbital Period (minutes)
Azimuth
Elevation
Range (km)
Doppler Factor

Next 0 passes for location: London (51.5072 / 0.1276)

Sorry there are no passes over London.